This is the latest recevied weather packets stored in our database for station/object KC8PTQ. If no packets are shown the sender has not sent any weather packets the latest 1 day(s).
| Time | Temp. | Humidity | Pressure | Rain* | Wind** | Luminosity | Snow |
|---|---|---|---|---|---|---|---|
| 1778018962 | 14.44° C | 98% | 1008.7 hPa | 1.78 mm | 0 m/s | 18 W/m² | - |
| 1778018659 | 14.44° C | 98% | 1008.5 hPa | 1.78 mm | 0 m/s | 33 W/m² | - |
| 1778018357 | 14.44° C | 98% | 1008.8 hPa | 0 mm | 0 m/s | 28 W/m² | - |
| 1778018055 | 14.44° C | 98% | 1008.6 hPa | 0 mm | 0 m/s | 35 W/m² | - |
| 1778017753 | 14.44° C | 98% | 1008.5 hPa | 0 mm | 0 m/s | 31 W/m² | - |
| 1778017450 | 14.44° C | 98% | 1008.8 hPa | 0 mm | 0 m/s | 28 W/m² | - |
| 1778017147 | 14.44° C | 98% | 1008.9 hPa | 0 mm | 0 m/s | 31 W/m² | - |
| 1778016845 | 14.44° C | 98% | 1008.8 hPa | 0 mm | 0 m/s | 36 W/m² | - |
| 1778016541 | 14.44° C | 98% | 1008.9 hPa | 0 mm | 0 m/s | 24 W/m² | - |
| 1778016238 | 14.44° C | 98% | 1008.9 hPa | 0 mm | 0 m/s | 38 W/m² | - |
| 1778015934 | 14.44° C | 97% | 1008.6 hPa | 0 mm | 0 m/s | 27 W/m² | - |
| 1778015631 | 14.44° C | 97% | 1008.8 hPa | 0 mm | 0 m/s | 36 W/m² | - |
| 1778015328 | 14.44° C | 97% | 1009 hPa | 0 mm | 0 m/s | 19 W/m² | - |
| 1778015025 | 14.44° C | 97% | 1009 hPa | 0 mm | 0 m/s | 15 W/m² | - |
| 1778014722 | 14.44° C | 97% | 1008.9 hPa | 0 mm | 0 m/s | 14 W/m² | - |
| 1778014420 | 14.44° C | 97% | 1008.9 hPa | 0 mm | 0 m/s | 20 W/m² | - |
| 1778014117 | 15° C | 97% | 1008.9 hPa | 0 mm | 0 m/s | 33 W/m² | - |
| 1778013815 | 15° C | 97% | 1009.1 hPa | 4.83 mm | 0 m/s | 46 W/m² | - |
| 1778013511 | 15° C | 97% | 1009.2 hPa | 4.83 mm | 0 m/s | 24 W/m² | - |
| 1778013208 | 15° C | 96% | 1009.3 hPa | 0 mm | 0 m/s | 48 W/m² | - |
| 1778012904 | 15° C | 96% | 1009.1 hPa | 0 mm | 0 m/s | 14 W/m² | - |
| 1778012600 | 15° C | 96% | 1009.1 hPa | 0 mm | 0 m/s | 30 W/m² | - |
| 1778012297 | 15° C | 95% | 1008.9 hPa | 0 mm | 0 m/s | 40 W/m² | - |
| 1778011995 | 15° C | 95% | 1009 hPa | 1.27 mm | 0 m/s | 34 W/m² | - |
| 1778011693 | 15° C | 93% | 1009.1 hPa | 3.05 mm | 0 m/s | 29 W/m² | - |
* Rain latest hour (hover to see other rain measurements)
** Current wind speed in m/s (hover to see current wind gust speed)